Time,TemperatureF,DewpointF,PressureIn,WindDirection,WindDirectionDegrees,WindSpeedMPH,WindSpeedGustMPH,Humidity,HourlyPrecipIn,Conditions,Clouds,dailyrainin,SoftwareType,DateUTC
2013-11-10 00:00:00,77.6,71.3,30.10,NE,49,8.0,8.0,81,0.00,,,0.00,Wunderground v.1.15,2013-11-10 05:00:00,
2013-11-10 00:10:00,77.5,70.8,30.10,ENE,65,8.0,8.0,80,0.00,,,0.00,Wunderground v.1.15,2013-11-10 05:10:00,
2013-11-10 00:20:00,77.6,71.3,30.09,ENE,74,8.0,12.0,81,0.00,,,0.00,Wunderground v.1.15,2013-11-10 05:20:00,
2013-11-10 00:30:00,77.6,70.9,30.09,NE,46,8.0,10.0,80,0.00,,,0.00,Wunderground v.1.15,2013-11-10 05:30:00,
2013-11-10 00:40:00,77.8,71.1,30.09,ENE,75,10.0,10.0,80,0.00,,,0.00,Wunderground v.1.15,2013-11-10 05:40:00,
2013-11-10 00:50:00,77.9,70.9,30.09,East,86,8.0,15.0,79,0.00,,,0.00,Wunderground v.1.15,2013-11-10 05:50:00,
2013-11-10 01:00:00,77.9,71.2,30.09,ENE,68,8.0,8.0,80,0.00,,,0.00,Wunderground v.1.15,2013-11-10 06:00:00,
2013-11-10 01:10:00,77.9,70.9,30.09,ENE,70,8.0,9.0,79,0.00,,,0.00,Wunderground v.1.15,2013-11-10 06:10:00,
2013-11-10 01:20:00,77.9,71.2,30.08,ENE,58,8.0,11.0,80,0.00,,,0.00,Wunderground v.1.15,2013-11-10 06:20:00,
2013-11-10 01:30:00,77.9,71.2,30.08,ENE,70,8.0,8.0,80,0.00,,,0.00,Wunderground v.1.15,2013-11-10 06:30:00,
2013-11-10 01:40:00,77.9,71.2,30.08,ENE,70,8.0,8.0,80,0.00,,,0.00,Wunderground v.1.15,2013-11-10 06:40:00,
2013-11-10 01:50:00,77.9,71.2,30.08,East,89,6.0,7.0,80,0.00,,,0.00,Wunderground v.1.15,2013-11-10 06:50:00,
2013-11-10 02:00:00,77.9,71.2,30.07,NE,54,8.0,8.0,80,0.00,,,0.00,Wunderground v.1.15,2013-11-10 07:00:00,
2013-11-10 02:10:00,77.8,70.8,30.07,ENE,60,8.0,8.0,79,0.00,,,0.00,Wunderground v.1.15,2013-11-10 07:10:00,
2013-11-10 02:20:00,77.8,71.1,30.07,East,79,7.0,8.0,80,0.00,,,0.00,Wunderground v.1.15,2013-11-10 07:20:00,
2013-11-10 02:30:00,77.7,71.0,30.07,East,101,7.0,11.0,80,0.00,,,0.00,Wunderground v.1.15,2013-11-10 07:30:00,
2013-11-10 02:40:00,77.8,71.1,30.07,ESE,107,7.0,9.0,80,0.00,,,0.00,Wunderground v.1.15,2013-11-10 07:40:00,
2013-11-10 02:50:00,77.9,71.2,30.07,NE,49,8.0,8.0,80,0.00,,,0.00,Wunderground v.1.15,2013-11-10 07:50:00,
2013-11-10 03:00:00,77.8,71.1,30.07,ENE,60,6.0,11.0,80,0.00,,,0.00,Wunderground v.1.15,2013-11-10 08:00:00,
2013-11-10 03:10:00,77.8,71.1,30.07,ENE,63,7.0,10.0,80,0.00,,,0.00,Wunderground v.1.15,2013-11-10 08:10:00,
2013-11-10 03:20:00,77.8,70.8,30.07,East,101,7.0,7.0,79,0.00,,,0.00,Wunderground v.1.15,2013-11-10 08:20:00,
2013-11-10 03:30:00,77.7,70.7,30.07,NE,53,7.0,8.0,79,0.00,,,0.00,Wunderground v.1.15,2013-11-10 08:30:00,
2013-11-10 03:40:00,77.5,71.2,30.08,ENE,72,6.0,6.0,81,0.00,,,0.00,Wunderground v.1.15,2013-11-10 08:40:00,
2013-11-10 03:50:00,77.5,70.5,30.07,ENE,60,7.0,10.0,79,0.00,,,0.00,Wunderground v.1.15,2013-11-10 08:50:00,
2013-11-10 04:00:00,77.6,70.6,30.07,East,85,8.0,8.0,79,0.00,,,0.00,Wunderground v.1.15,2013-11-10 09:00:00,
2013-11-10 04:10:00,77.6,70.2,30.07,ENE,65,7.0,10.0,78,0.00,,,0.00,Wunderground v.1.15,2013-11-10 09:10:00,
2013-11-10 04:20:00,77.6,70.2,30.07,NNE,26,8.0,11.0,78,0.00,,,0.00,Wunderground v.1.15,2013-11-10 09:20:00,
2013-11-10 04:30:00,77.6,70.2,30.07,ENE,70,7.0,7.0,78,0.00,,,0.00,Wunderground v.1.15,2013-11-10 09:30:00,
2013-11-10 04:40:00,77.6,70.2,30.07,East,85,6.0,6.0,78,0.00,,,0.00,Wunderground v.1.15,2013-11-10 09:40:00,
2013-11-10 04:50:00,77.6,69.8,30.07,East,85,6.0,6.0,77,0.00,,,0.00,Wunderground v.1.15,2013-11-10 09:50:00,
2013-11-10 05:00:00,77.8,69.2,30.07,East,91,7.0,7.0,75,0.00,,,0.00,Wunderground v.1.15,2013-11-10 10:00:00,
2013-11-10 05:10:00,77.9,68.9,30.08,ENE,68,6.0,6.0,74,0.00,,,0.00,Wunderground v.1.15,2013-11-10 10:10:00,
2013-11-10 05:20:00,77.9,68.9,30.08,East,84,7.0,11.0,74,0.00,,,0.00,Wunderground v.1.15,2013-11-10 10:20:00,
2013-11-10 05:30:00,78.0,69.0,30.08,East,79,7.0,7.0,74,0.00,,,0.00,Wunderground v.1.15,2013-11-10 10:30:00,
2013-11-10 05:40:00,77.9,68.5,30.08,ENE,65,7.0,8.0,73,0.00,,,0.00,Wunderground v.1.15,2013-11-10 10:40:00,
2013-11-10 05:50:00,78.0,68.2,30.08,NNE,29,7.0,10.0,72,0.00,,,0.00,Wunderground v.1.15,2013-11-10 10:50:00,
2013-11-10 06:00:00,77.9,68.9,30.09,ENE,75,6.0,6.0,74,0.00,,,0.00,Wunderground v.1.15,2013-11-10 11:00:00,
2013-11-10 06:10:00,77.8,69.6,30.09,ENE,74,7.0,9.0,76,0.00,,,0.00,Wunderground v.1.15,2013-11-10 11:10:00,
2013-11-10 06:20:00,77.7,69.5,30.09,ENE,75,8.0,8.0,76,0.00,,,0.00,Wunderground v.1.15,2013-11-10 11:20:00,
2013-11-10 06:30:00,77.7,69.5,30.10,ESE,107,7.0,7.0,76,0.00,,,0.00,Wunderground v.1.15,2013-11-10 11:30:00,
2013-11-10 06:40:00,77.7,69.9,30.10,East,97,6.0,6.0,77,0.00,,,0.00,Wunderground v.1.15,2013-11-10 11:40:00,
2013-11-10 06:50:00,77.7,70.3,30.10,NE,42,7.0,9.0,78,0.00,,,0.00,Wunderground v.1.15,2013-11-10 11:50:00,
2013-11-10 07:00:00,77.7,70.3,30.10,East,89,8.0,8.0,78,0.00,,,0.00,Wunderground v.1.15,2013-11-10 12:00:00,
2013-11-10 07:10:00,77.7,70.3,30.10,East,84,6.0,9.0,78,0.00,,,0.00,Wunderground v.1.15,2013-11-10 12:10:00,
2013-11-10 07:20:00,77.8,70.0,30.11,East,80,6.0,6.0,77,0.00,,,0.00,Wunderground v.1.15,2013-11-10 12:20:00,
2013-11-10 07:30:00,77.9,70.1,30.11,ENE,70,7.0,7.0,77,0.00,,,0.00,Wunderground v.1.15,2013-11-10 12:30:00,
2013-11-10 07:40:00,78.0,70.6,30.11,East,82,6.0,6.0,78,0.00,,,0.00,Wunderground v.1.15,2013-11-10 12:40:00,
2013-11-10 07:50:00,78.1,70.3,30.12,ESE,115,7.0,7.0,77,0.00,,,0.00,Wunderground v.1.15,2013-11-10 12:50:00,
2013-11-10 08:00:00,78.2,70.8,30.12,East,82,6.0,6.0,78,0.00,,,0.00,Wunderground v.1.15,2013-11-10 13:00:00,
2013-11-10 08:10:00,78.4,70.6,30.12,ESE,103,6.0,9.0,77,0.00,,,0.00,Wunderground v.1.15,2013-11-10 13:10:00,
2013-11-10 08:20:00,78.6,70.8,30.12,ENE,58,7.0,7.0,77,0.00,,,0.00,Wunderground v.1.15,2013-11-10 13:20:00,
2013-11-10 08:30:00,78.8,71.0,30.12,NE,40,6.0,6.0,77,0.00,,,0.00,Wunderground v.1.15,2013-11-10 13:30:00,
2013-11-10 08:40:00,79.1,70.9,30.12,East,84,6.0,6.0,76,0.00,,,0.00,Wunderground v.1.15,2013-11-10 13:40:00,
2013-11-10 08:50:00,79.1,70.9,30.13,NE,56,7.0,8.0,76,0.00,,,0.00,Wunderground v.1.15,2013-11-10 13:50:00,
2013-11-10 09:00:00,79.2,71.0,30.13,ENE,67,6.0,6.0,76,0.00,,,0.00,Wunderground v.1.15,2013-11-10 14:00:00,
2013-11-10 09:10:00,79.3,70.7,30.13,ENE,78,6.0,7.0,75,0.00,,,0.00,Wunderground v.1.15,2013-11-10 14:10:00,
2013-11-10 09:20:00,79.4,71.2,30.13,East,84,6.0,9.0,76,0.00,,,0.00,Wunderground v.1.15,2013-11-10 14:20:00,
2013-11-10 09:30:00,79.6,71.0,30.13,NE,51,6.0,8.0,75,0.00,,,0.00,Wunderground v.1.15,2013-11-10 14:30:00,
2013-11-10 09:40:00,79.5,71.3,30.13,ENE,70,6.0,6.0,76,0.00,,,0.00,Wunderground v.1.15,2013-11-10 14:40:00,
2013-11-10 09:50:00,79.7,71.1,30.13,ENE,65,6.0,9.0,75,0.00,,,0.00,Wunderground v.1.15,2013-11-10 14:50:00,
2013-11-10 10:00:00,79.9,71.3,30.13,ENE,76,6.0,6.0,75,0.00,,,0.00,Wunderground v.1.15,2013-11-10 15:00:00,
2013-11-10 10:10:00,79.8,70.8,30.13,ESE,105,6.0,6.0,74,0.00,,,0.00,Wunderground v.1.15,2013-11-10 15:10:00,
2013-11-10 10:20:00,80.0,71.4,30.13,East,101,6.0,6.0,75,0.00,,,0.00,Wunderground v.1.15,2013-11-10 15:20:00,
2013-11-10 10:30:00,80.5,71.0,30.13,NW,323,6.0,6.0,73,0.00,,,0.00,Wunderground v.1.15,2013-11-10 15:30:00,
2013-11-10 10:40:00,80.9,71.4,30.13,East,86,7.0,7.0,73,0.00,,,0.00,Wunderground v.1.15,2013-11-10 15:40:00,
2013-11-10 10:50:00,80.8,70.9,30.13,East,81,6.0,7.0,72,0.00,,,0.00,Wunderground v.1.15,2013-11-10 15:50:00,
2013-11-10 11:00:00,80.5,70.6,30.12,East,84,6.0,6.0,72,0.00,,,0.00,Wunderground v.1.15,2013-11-10 16:00:00,
2013-11-10 11:10:00,80.9,71.0,30.12,ENE,74,5.0,6.0,72,0.00,,,0.00,Wunderground v.1.15,2013-11-10 16:10:00,
2013-11-10 11:20:00,81.8,71.5,30.11,ENE,75,6.0,6.0,71,0.00,,,0.00,Wunderground v.1.15,2013-11-10 16:20:00,
2013-11-10 11:30:00,81.6,71.3,30.11,ESE,112,6.0,6.0,71,0.00,,,0.00,Wunderground v.1.15,2013-11-10 16:30:00,
2013-11-10 11:40:00,81.6,71.3,30.11,East,96,6.0,6.0,71,0.00,,,0.00,Wunderground v.1.15,2013-11-10 16:40:00,
2013-11-10 11:50:00,80.9,70.6,30.10,ESE,103,8.0,9.0,71,0.00,,,0.00,Wunderground v.1.15,2013-11-10 16:50:00,
2013-11-10 12:00:00,80.7,70.4,30.10,East,80,7.0,10.0,71,0.00,,,0.00,Wunderground v.1.15,2013-11-10 17:00:00,
2013-11-10 12:10:00,80.7,70.8,30.10,ENE,77,6.0,8.0,72,0.00,,,0.00,Wunderground v.1.15,2013-11-10 17:10:00,
2013-11-10 12:20:00,80.8,71.3,30.09,ENE,72,6.0,6.0,73,0.00,,,0.00,Wunderground v.1.15,2013-11-10 17:20:00,
2013-11-10 12:30:00,80.4,71.3,30.09,East,80,6.0,8.0,74,0.00,,,0.00,Wunderground v.1.15,2013-11-10 17:30:00,
2013-11-10 12:40:00,80.1,71.1,30.09,NE,51,7.0,7.0,74,0.00,,,0.00,Wunderground v.1.15,2013-11-10 17:40:00,
2013-11-10 12:50:00,80.2,71.2,30.09,ENE,61,6.0,10.0,74,0.00,,,0.00,Wunderground v.1.15,2013-11-10 17:50:00,
2013-11-10 13:00:00,80.4,71.7,30.08,ENE,72,6.0,6.0,75,0.00,,,0.00,Wunderground v.1.15,2013-11-10 18:00:00,
2013-11-10 13:10:00,80.5,71.4,30.08,East,94,7.0,7.0,74,0.00,,,0.00,Wunderground v.1.15,2013-11-10 18:10:00,
2013-11-10 13:20:00,80.8,71.3,30.08,ENE,67,6.0,6.0,73,0.00,,,0.00,Wunderground v.1.15,2013-11-10 18:20:00,
2013-11-10 13:30:00,81.0,71.1,30.08,East,101,7.0,9.0,72,0.00,,,0.00,Wunderground v.1.15,2013-11-10 18:30:00,
2013-11-10 13:40:00,81.0,71.5,30.08,ENE,60,7.0,7.0,73,0.00,,,0.00,Wunderground v.1.15,2013-11-10 18:40:00,
2013-11-10 13:50:00,81.2,71.7,30.07,ENE,68,6.0,10.0,73,0.00,,,0.00,Wunderground v.1.15,2013-11-10 18:50:00,
2013-11-10 14:00:00,80.9,71.4,30.07,NNE,27,9.0,9.0,73,0.00,,,0.00,Wunderground v.1.15,2013-11-10 19:00:00,
2013-11-10 14:10:00,81.7,72.2,30.07,ENE,64,6.0,8.0,73,0.00,,,0.00,Wunderground v.1.15,2013-11-10 19:10:00,
2013-11-10 14:20:00,81.3,71.4,30.07,ENE,65,7.0,7.0,72,0.00,,,0.00,Wunderground v.1.15,2013-11-10 19:20:00,
2013-11-10 14:30:00,80.8,70.9,30.06,ENE,70,8.0,8.0,72,0.00,,,0.00,Wunderground v.1.15,2013-11-10 19:30:00,
2013-11-10 14:40:00,80.5,71.0,30.06,ENE,74,7.0,7.0,73,0.00,,,0.00,Wunderground v.1.15,2013-11-10 19:40:00,
2013-11-10 14:50:00,80.4,71.3,30.06,ENE,74,7.0,7.0,74,0.00,,,0.00,Wunderground v.1.15,2013-11-10 19:50:00,
2013-11-10 15:00:00,80.4,71.3,30.06,NE,56,6.0,11.0,74,0.00,,,0.00,Wunderground v.1.15,2013-11-10 20:00:00,
2013-11-10 15:10:00,80.2,71.2,30.06,ENE,77,8.0,10.0,74,0.00,,,0.00,Wunderground v.1.15,2013-11-10 20:10:00,
2013-11-10 15:20:00,80.1,70.7,30.06,East,88,7.0,9.0,73,0.00,,,0.00,Wunderground v.1.15,2013-11-10 20:20:00,
2013-11-10 15:30:00,79.9,70.5,30.06,NE,51,7.0,7.0,73,0.00,,,0.00,Wunderground v.1.15,2013-11-10 20:30:00,
2013-11-10 15:40:00,80.0,70.2,30.06,NE,41,7.0,7.0,72,0.00,,,0.00,Wunderground v.1.15,2013-11-10 20:40:00,
2013-11-10 15:50:00,79.8,70.0,30.07,NE,40,6.0,6.0,72,0.00,,,0.00,Wunderground v.1.15,2013-11-10 20:50:00,
2013-11-10 16:00:00,79.7,69.9,30.07,East,92,7.0,7.0,72,0.00,,,0.00,Wunderground v.1.15,2013-11-10 21:00:00,
2013-11-10 16:10:00,79.6,69.4,30.07,NE,54,6.0,6.0,71,0.00,,,0.00,Wunderground v.1.15,2013-11-10 21:10:00,
2013-11-10 16:20:00,79.7,69.9,30.07,ENE,65,7.0,10.0,72,0.00,,,0.00,Wunderground v.1.15,2013-11-10 21:20:00,
2013-11-10 16:30:00,79.6,69.8,30.07,ENE,72,7.0,7.0,72,0.00,,,0.00,Wunderground v.1.15,2013-11-10 21:30:00,
2013-11-10 16:40:00,79.5,69.3,30.07,NE,48,6.0,6.0,71,0.00,,,0.00,Wunderground v.1.15,2013-11-10 21:40:00,
2013-11-10 16:50:00,79.4,69.2,30.07,ENE,78,5.0,5.0,71,0.00,,,0.00,Wunderground v.1.15,2013-11-10 21:50:00,
2013-11-10 17:00:00,79.5,69.3,30.07,NE,54,6.0,6.0,71,0.00,,,0.00,Wunderground v.1.15,2013-11-10 22:00:00,
2013-11-10 17:10:00,79.3,69.5,30.07,NNE,28,7.0,7.0,72,0.00,,,0.00,Wunderground v.1.15,2013-11-10 22:10:00,
2013-11-10 17:20:00,79.1,69.3,30.07,NE,39,6.0,6.0,72,0.00,,,0.00,Wunderground v.1.15,2013-11-10 22:20:00,
2013-11-10 17:30:00,78.9,69.1,30.07,ENE,57,6.0,6.0,72,0.00,,,0.00,Wunderground v.1.15,2013-11-10 22:30:00,
2013-11-10 17:40:00,78.7,68.9,30.06,NE,51,6.0,11.0,72,0.00,,,0.00,Wunderground v.1.15,2013-11-10 22:40:00,
2013-11-10 17:50:00,78.6,69.2,30.07,NE,54,6.0,6.0,73,0.00,,,0.00,Wunderground v.1.15,2013-11-10 22:50:00,
2013-11-10 18:00:00,78.4,69.4,30.07,ENE,64,6.0,6.0,74,0.00,,,0.00,Wunderground v.1.15,2013-11-10 23:00:00,
2013-11-10 18:10:00,78.3,68.9,30.07,NNE,13,5.0,5.0,73,0.00,,,0.00,Wunderground v.1.15,2013-11-10 23:10:00,
2013-11-10 18:20:00,78.5,68.3,30.07,NE,50,7.0,7.0,71,0.00,,,0.00,Wunderground v.1.15,2013-11-10 23:20:00,
2013-11-10 18:30:00,78.6,68.0,30.07,NE,51,6.0,6.0,70,0.00,,,0.00,Wunderground v.1.15,2013-11-10 23:30:00,
2013-11-10 18:40:00,78.6,68.0,30.07,East,85,6.0,6.0,70,0.00,,,0.00,Wunderground v.1.15,2013-11-10 23:40:00,
2013-11-10 18:50:00,78.5,68.3,30.07,NE,54,6.0,7.0,71,0.00,,,0.00,Wunderground v.1.15,2013-11-10 23:50:00,
2013-11-10 19:00:00,78.5,67.9,30.07,NNE,26,6.0,9.0,70,0.00,,,0.00,Wunderground v.1.15,2013-11-11 00:00:00,
2013-11-10 19:10:00,78.5,68.3,30.08,NE,51,7.0,7.0,71,0.00,,,0.00,Wunderground v.1.15,2013-11-11 00:10:00,
2013-11-10 19:20:00,78.5,67.9,30.08,ENE,60,8.0,11.0,70,0.00,,,0.00,Wunderground v.1.15,2013-11-11 00:20:00,
2013-11-10 19:30:00,78.4,67.8,30.08,ESE,113,7.0,7.0,70,0.00,,,0.00,Wunderground v.1.15,2013-11-11 00:30:00,
2013-11-10 19:40:00,78.2,68.0,30.08,ENE,70,4.0,4.0,71,0.00,,,0.00,Wunderground v.1.15,2013-11-11 00:40:00,
2013-11-10 19:50:00,78.3,68.1,30.08,ENE,74,6.0,6.0,71,0.00,,,0.00,Wunderground v.1.15,2013-11-11 00:50:00,
2013-11-10 20:00:00,78.3,68.1,30.08,East,79,5.0,5.0,71,0.00,,,0.00,Wunderground v.1.15,2013-11-11 01:00:00,
2013-11-10 20:10:00,78.3,68.1,30.08,ENE,70,6.0,6.0,71,0.00,,,0.00,Wunderground v.1.15,2013-11-11 01:10:00,
2013-11-10 20:20:00,78.3,68.5,30.09,NE,46,5.0,5.0,72,0.00,,,0.00,Wunderground v.1.15,2013-11-11 01:20:00,
2013-11-10 20:30:00,78.3,68.5,30.09,NNE,29,5.0,7.0,72,0.00,,,0.00,Wunderground v.1.15,2013-11-11 01:30:00,
2013-11-10 20:40:00,78.2,68.8,30.09,East,98,6.0,6.0,73,0.00,,,0.00,Wunderground v.1.15,2013-11-11 01:40:00,
2013-11-10 20:50:00,78.2,68.8,30.09,NE,54,6.0,7.0,73,0.00,,,0.00,Wunderground v.1.15,2013-11-11 01:50:00,
2013-11-10 21:00:00,78.1,68.3,30.09,East,89,7.0,7.0,72,0.00,,,0.00,Wunderground v.1.15,2013-11-11 02:00:00,
2013-11-10 21:10:00,78.0,68.6,30.09,East,82,5.0,6.0,73,0.00,,,0.00,Wunderground v.1.15,2013-11-11 02:10:00,
2013-11-10 21:20:00,78.1,68.7,30.10,NE,46,5.0,5.0,73,0.00,,,0.00,Wunderground v.1.15,2013-11-11 02:20:00,
2013-11-10 21:30:00,78.1,67.9,30.10,ENE,70,5.0,6.0,71,0.00,,,0.00,Wunderground v.1.15,2013-11-11 02:30:00,
2013-11-10 21:40:00,78.2,68.4,30.10,ENE,75,7.0,7.0,72,0.00,,,0.00,Wunderground v.1.15,2013-11-11 02:40:00,
2013-11-10 21:50:00,78.0,68.2,30.10,East,82,4.0,4.0,72,0.00,,,0.00,Wunderground v.1.15,2013-11-11 02:50:00,
2013-11-10 22:00:00,77.9,68.1,30.10,North,359,5.0,5.0,72,0.00,,,0.00,Wunderground v.1.15,2013-11-11 03:00:00,
2013-11-10 22:10:00,78.0,67.8,30.10,ENE,61,5.0,6.0,71,0.00,,,0.00,Wunderground v.1.15,2013-11-11 03:10:00,
2013-11-10 22:20:00,78.0,67.8,30.10,East,94,4.0,4.0,71,0.00,,,0.00,Wunderground v.1.15,2013-11-11 03:20:00,
2013-11-10 22:30:00,77.9,68.1,30.10,NE,34,4.0,4.0,72,0.00,,,0.00,Wunderground v.1.15,2013-11-11 03:30:00,
2013-11-10 22:40:00,77.9,67.7,30.10,NE,50,5.0,5.0,71,0.00,,,0.00,Wunderground v.1.15,2013-11-11 03:40:00,
2013-11-10 22:50:00,77.9,67.7,30.10,NNE,33,6.0,7.0,71,0.00,,,0.00,Wunderground v.1.15,2013-11-11 03:50:00,
2013-11-10 23:00:00,77.9,67.7,30.09,ENE,68,5.0,5.0,71,0.00,,,0.00,Wunderground v.1.15,2013-11-11 04:00:00,
2013-11-10 23:10:00,78.0,67.8,30.09,ENE,60,5.0,6.0,71,0.00,,,0.00,Wunderground v.1.15,2013-11-11 04:10:00,
2013-11-10 23:20:00,78.0,67.4,30.09,NE,34,6.0,6.0,70,0.00,,,0.00,Wunderground v.1.15,2013-11-11 04:20:00,
2013-11-10 23:30:00,77.9,67.3,30.09,East,81,5.0,6.0,70,0.00,,,0.00,Wunderground v.1.15,2013-11-11 04:30:00,
2013-11-10 23:40:00,77.8,67.2,30.09,East,97,5.0,5.0,70,0.00,,,0.00,Wunderground v.1.15,2013-11-11 04:40:00,
2013-11-10 23:50:00,78.0,67.4,30.09,East,79,6.0,6.0,70,0.00,,,0.00,Wunderground v.1.15,2013-11-11 04:50:00,